Weather History for Denver, CO

Change the Weather History Date:

Saturday, April 5, 2014

  Actual Average Record
Temperature  
Mean Temperature 47 °F 45 °F  
Max Temperature 59 °F 59 °F 82 °F (1991)
Min Temperature 34 °F 31 °F 12 °F (1983)
Degree Days  
Heating Degree Days 18 20  
Month to date heating degree days 118 102  
Since 1 July heating degree days 5376 5304  
Cooling Degree Days 0 0  
Month to date cooling degree days 0 0  
Year to date cooling degree days 0 0  
Moisture  
Dew Point 25 °F    
Average Humidity 47    
Maximum Humidity 70    
Minimum Humidity 24    
Precipitation  
Precipitation 0.00 in 0.04 in 1.00 in (1909)
Month to date precipitation 0.49 0.18  
Year to date precipitation 2.45 1.88  
Snow  
Snow 0.00 in - - ()
Month to date snowfall 3.4  
Since 1 July snowfall 35.1  
Snow Depth 0.00 in    
Sea Level Pressure  
Sea Level Pressure 29.81 in    
Wind  
Wind Speed 8 mph (WSW)    
Max Wind Speed 21 mph    
Max Gust Speed 25 mph    
Visibility 10 miles    
Events      
T = Trace of Precipitation, MM = Missing Value Source: NWS Daily Summary

Daily Weather History Graph

Daily Weather History Graph

Search for Another Location

Airport:

Trip Planner

Search our weather history database for the weather conditions in past years. The results will help you decide how hot, cold, wet, or windy it might be!

Date:

Astronomy

Apr. 05, 2014 Rise Set
Actual Time 6:36 AM MDT 7:26 PM MDT
Civil Twilight 6:08 AM MDT 7:54 PM MDT
Nautical Twilight 5:36 AM MDT 8:26 PM MDT
Astronomical Twilight 5:02 AM MDT 9:00 PM MDT
Moon 10:46 AM MDT (4/5) 12:38 AM MDT (4/5)
Length of Visible Light 13h 45m
Length of Day
12h 50m
Waxing Crescent, 35% of the Moon is Illuminated
Apr 5
Waxing Crescent
Apr 7
First Quarter
Apr 15
Full
Apr 22
Last Quarter
Apr 29
New

Hourly Weather History & Observations

Time (MDT) Temp. Windchill Dew Point Humidity Pressure Visibility Wind Dir Wind Speed Gust Speed Precip Events Conditions
12:53 AM 41.0 °F 33.9 °F 28.9 °F 62% 29.84 in 10.0 mi SW 12.7 mph - N/A   Overcast
1:53 AM 39.0 °F 32.3 °F 27.0 °F 62% 29.84 in 10.0 mi SSW 10.4 mph - N/A   Scattered Clouds
2:53 AM 37.0 °F 29.8 °F 27.0 °F 67% 29.83 in 10.0 mi SW 10.4 mph - N/A   Scattered Clouds
3:53 AM 36.0 °F 29.0 °F 26.1 °F 67% 29.82 in 10.0 mi SW 9.2 mph - N/A   Scattered Clouds
4:53 AM 37.0 °F 30.4 °F 25.0 °F 62% 29.81 in 10.0 mi SW 9.2 mph - N/A   Scattered Clouds
5:53 AM 36.0 °F 29.6 °F 24.1 °F 62% 29.82 in 10.0 mi SSW 8.1 mph - N/A   Scattered Clouds
6:53 AM 35.1 °F 27.4 °F 25.0 °F 67% 29.86 in 10.0 mi SW 10.4 mph - N/A   Mostly Cloudy
7:53 AM 39.9 °F 33.4 °F 25.0 °F 55% 29.86 in 10.0 mi WSW 10.4 mph - N/A   Mostly Cloudy
8:53 AM 44.1 °F 38.1 °F 25.0 °F 47% 29.85 in 10.0 mi SW 11.5 mph - N/A   Mostly Cloudy
9:53 AM 50.0 °F - 23.0 °F 35% 29.84 in 10.0 mi Calm Calm - N/A   Mostly Cloudy
10:53 AM 52.0 °F - 19.9 °F 28% 29.82 in 10.0 mi Calm Calm - N/A   Mostly Cloudy
11:53 AM 54.0 °F - 21.0 °F 28% 29.79 in 10.0 mi NNE 8.1 mph - N/A   Mostly Cloudy
12:53 PM 55.9 °F - 21.9 °F 27% 29.76 in 10.0 mi Variable 3.5 mph - N/A   Mostly Cloudy
1:53 PM 55.0 °F - 19.0 °F 24% 29.76 in 10.0 mi Variable 3.5 mph - N/A   Mostly Cloudy
2:53 PM 55.9 °F - 19.9 °F 25% 29.74 in 10.0 mi SW 4.6 mph - N/A   Mostly Cloudy
3:53 PM 55.0 °F - 19.0 °F 24% 29.74 in 10.0 mi WNW 10.4 mph - N/A   Mostly Cloudy
4:53 PM 53.1 °F - 23.0 °F 31% 29.76 in 10.0 mi Variable 3.5 mph - N/A   Overcast
5:53 PM 51.1 °F - 24.1 °F 35% 29.78 in 10.0 mi SW 8.1 mph - N/A   Mostly Cloudy
6:53 PM 50.0 °F - 26.1 °F 39% 29.80 in 10.0 mi SW 6.9 mph - N/A   Mostly Cloudy
7:53 PM 50.0 °F - 26.1 °F 39% 29.80 in 10.0 mi WNW 9.2 mph - N/A   Overcast
8:53 PM 46.9 °F - 28.9 °F 50% 29.82 in 10.0 mi WNW 12.7 mph - N/A   Mostly Cloudy
9:53 PM 45.0 °F 39.7 °F 30.0 °F 56% 29.83 in 10.0 mi North 10.4 mph - N/A   Overcast
10:53 PM 44.1 °F 38.6 °F 30.0 °F 58% 29.83 in 10.0 mi North 10.4 mph - N/A   Overcast
11:53 PM 42.1 °F 36.6 °F 30.0 °F 62% 29.82 in 10.0 mi NW 9.2 mph - N/A   Scattered Clouds